Impacts TAF Board INFO
FOR SITUATIONAL AWARENESS. NOT TO BE USED FOR FLIGHT PLANNING PURPOSES.
IDs:

KIAH - Houston/Bush Intl, TX, US

Issued at 1458 UTC 14 Dec 2017
Updated at 1504 UTC 14 Dec 2017
Potential Impact None Slight Moderate High
Time1453Z 14/16Z 14/17Z 14/18Z 14/19Z 14/20Z 14/21Z 14/22Z 14/23Z 15/00Z 15/01Z 15/02Z 15/03Z 15/04Z>>
Type OBS PRVL PRVL PRVL PRVL PRVL PRVL PRVL PRVL PRVL PRVL PRVL PRVL PRVL
VIS 10 >6 >6 >6 >6 >6 >6 >6 >6 >6 >6 >6 >6 >6
CIG 230 250 250 250 250 130 130 130 150 150 150 150 150 150
Cover OVC OVC OVC OVC OVC OVC OVC OVC OVC OVC OVC OVC OVC OVC
FltCat VFR VFR VFR VFR VFR VFR VFR VFR VFR VFR VFR VFR VFR VFR
WX -- -- -- -- -- -- -- -- -- -- -- -- -- --
WDir VRB 260 260 260 260 300 300 300 360 360 360 360 360 360
WSpd 0 4 4 4 4 6 6 6 6 6 6 6 6 6
WGst -- -- -- -- -- -- -- -- -- -- -- -- -- --

Raw TAF
KIAH 141458Z 1415/1518 26004KT P6SM SCT130 OVC250
  FM142000 30006KT P6SM BKN130 OVC250
  FM142300 36006KT P6SM OVC150
  FM150900 01010KT P6SM OVC120


Raw METAR
KIAH 141453Z 00000KT 10SM FEW130 OVC230 11/07 A2999 RMK AO2 SLP157 T01110072 53015
KIAH 141353Z 00000KT 10SM SCT130 BKN250 08/07 A2997 RMK AO2 SLP150 T00780067
KIAH 141253Z 00000KT 10SM SCT150 SCT250 07/06 A2997 RMK AO2 SLP148 T00720056

METAR Board
Radar Display
Forecast Discussion

FOR SITUATIONAL AWARENESS. NOT TO BE USED FOR FLIGHT PLANNING PURPOSES.